Regional Weather Roundup
Issued by NWS

Home | Current Version | Previous Version | Graphics & Text | Print | Product List | Glossary On
Versions: 1 2 3 4 5 6 7 8 9 10 11 12 13 14 15 16 17 18 19 20 21 22 23 24 25 26 27 28 29 30 31 32 33 34 35 36 37 38 39 40 41 42 43 44 45 46 47 48 49 50
000
ASUS44 KMEG 220300
RWRTN
TENNESSEE HOURLY STATE WEATHER ROUNDUP
NATIONAL WEATHER SERVICE MEMPHIS TN
900 PM CST SUN DEC 21 2014

TNZ002-004-019-021-049-052-054-088>092-220400-
WEST TENNESSEE

CITY           SKY/WX    TMP DP  RH WIND       PRES   REMARKS
MEMPHIS INTL   PTCLDY    47  35  63 SE9       29.97F
NWS MEMPHIS      N/A     44 N/A N/A MISG        N/A
JACKSON        CLEAR     44  36  73 SE8       29.99F
DYERSBURG      CLOUDY    43  25  49 E6        30.00F
UNION CITY     CLOUDY    36  30  80 E3        29.98S
PARIS          CLEAR     37  28  70 E8        29.99F WCI  31
LEXINGTON      CLEAR     37  34  87 SE3       30.00F
SAVANNAH       CLEAR     36  36 100 CALM      30.02S
$$

TNZ008-025-027-028-033-062-065-066-220400-
NORTH MIDDLE TENNESSEE

CITY           SKY/WX    TMP DP  RH WIND       PRES   REMARKS
NASHVILLE      PTCLDY    45  37  73 SE5       30.05S
CLARKSVILLE    MOCLDY    41  32  70 E7        30.03F
COOKEVILLE     CLOUDY    46  39  76 S3        30.07S
CROSSVILLE     CLOUDY    44  36  73 SE3       30.09R
$$

TNZ061-075-076-078-094-096-097-220400-
SOUTH MIDDLE TENNESSEE

CITY           SKY/WX    TMP DP  RH WIND       PRES   REMARKS
FAYETTEVILLE   CLOUDY    46  43  87 MISG      30.05F
TULLAHOMA      CLOUDY    46  39  76 SE7       30.07S
WINCHESTER     CLOUDY    46  43  87 SE3       30.08F
SHELBYVILLE    CLOUDY    48  43  81 SE7       30.07R
$$

TNZ017-018-042-046-047-220400-
NORTHEAST TENNESSEE

CITY           SKY/WX    TMP DP  RH WIND       PRES   REMARKS
TRI CITIES     MOCLDY    42  34  73 E5        30.11S
ELIZABETHTON   CLEAR     39  34  81 E9        30.12S WCI  33
$$

TNZ012-013-036-069-073-074-220400-
CENTRAL EAST TENNESSEE

CITY           SKY/WX    TMP DP  RH WIND       PRES   REMARKS
KNOXVILLE      CLOUDY    42  35  76 NE3       30.09F
OAK RIDGE      CLOUDY    45  36  70 CALM      30.11S
GATLINBURG     CLEAR     36  34  93 CALM      30.10S
$$

TNZ083-085-099-220400-
SOUTHEAST TENNESSEE

CITY           SKY/WX    TMP DP  RH WIND       PRES   REMARKS
CHATTANOOGA    CLOUDY    46  39  76 CALM      30.11S
$$

SKY/WX REPORTED AS FAIR MEANS FEW OR NO CLOUDS BELOW
12 THOUSAND FEET.



USA.gov is the U.S. government's official web portal to all federal, state and local government web resources and services.